STARLINK-32132, 60334

Orbit data source: Space-Track

STARLINK-32132, 60334 is a payload satellite owned by SpaceX/Seattle (US) in LEO that was launched on Fri, 02 Aug 2024 UTC via an FALCON 9 launch vehicle from the Air Force Eastern Test Range (AFETR). Payload-class satellites include a variety of spacecraft equipped with specific instruments for various scientific and technological missions. These include communications satellites like Starlink; space stations such as the ISS; scientific satellites like the Hubble; Earth observation satellites from companies like Planet Labs, Umbra, and HawkEye 360; GPS; miniature CubeSats for education and research; and military/defense satellites.

Loading next visibility...
Identifier
60334, 2024-136F
Orbit
LEO
Last TLE update
2 days ago
Origin
Manufacturer
SpaceX/Seattle
Mission
Operational Commercial Communications
Bus & Motor
STARLINK V2M, Unknown motor
Mass
730 kg wet, ~700 kg dry
Launch date (UTC)
2024-08-02 (9 months ago)
Launch vehicle
FALCON 9
Launch site
Air Force Eastern Test Range (AFETR)
Object type
Payload
Rocket body
Debris
Shape & HBR
Box + 2 Pan, 29 m
Radar Cross Section
33.884 m², Large (>1 m²)

Expand to show TLE details & history

TLE from 2 days ago
0 STARLINK-32132
1 60334U 24136F   25118.22881004 -.00002837  00000-0 -83680-4 0  9995
2 60334  53.1600 101.1260 0001265  99.9437 260.1706 15.30199216 42420
Epoch: 2025-04-28T05:29Z
Definitive object data (Epoch: 2025-04-28T05:29:29.187Z)
Latitude
-0.00007°
Longitude
162.3085°
Altitude
476.265 km
Speed
7.629 km/s
True Right ascension
06h 44m 30s
True Declination
0° 00' 00"
Sunlit
Object was in daylight at TLE epoch
Visualization TLE readout
Latitude
51.56984°
Longitude
-136.37025°
Altitude
480.658 km
Speed
7.632 km/s
Apparent Right ascension
17h 15m 37s
Apparent Declination
33° 02' 58"
Sunlit
Object is in daylight
Visualization observer readout
Local Sidereal Time
09:15:48
Azimuth
46.595° ENE
Elevation
1.657°
Doppler factor
1
Orbital elements
Apogee altitude
476.341 km
Perigee altitude
474.607 km
Semi-major axis
6,853.611 km
Eccentricity
0.0001265
Inclination
53.16°
RAAN
101.126°
Arg. of periapsis
99.9437°
True anomaly
260.15632°
Mean anomaly
260.1706°
Eccentric anomaly
260.16346°
Mean motion
3.82529 °/min
BSTAR
-0.00008368
Orbital period
94.11 mins
Loading maneuver chart data...
Loading SW <> Apogee altitude chart data...
Loading historical data...
Loading historical data...
Loading historical data...
Loading historical data...
Loading historical data...
Loading historical data...
Loading historical data...

STARLINK-32132 Visibility forecast

Observer location: undefined°, undefined°

Span
Click to sort rows by Start time (UTC) header in descending order
Start Az.
Max El. time (UTC)
Max El. Az.
Max El.
End time (UTC)
End Az.
4 mins2025-04-30 06:33:13.494Z352.31° N2025-04-30 06:34:13.494Z13.692° NNE19.974°2025-04-30 06:37:13.494Z74.028° E
5 mins2025-04-30 08:11:13.494Z294.905° NW2025-04-30 08:13:13.494Z190.061° SSW40.546°2025-04-30 08:16:13.494Z142.648° SSE
5 mins2025-05-01 01:06:13.494Z246.904° WSW2025-05-01 01:08:13.494Z309.899° NW41.337°2025-05-01 01:11:13.494Z42.031° NE
|